Hettinger, ND

6:25 PM MDT on August 25, 2016 (GMT -0600)
Hettinger Municipal

Weather History for KHEI - March, 2012

Change the Weather History Date:

Saturday, March 10, 2012

  Actual Average Record
Temperature  
Mean Temperature 52 °F -  
Max Temperature 73 °F 38 °F 73 °F (2012)
Min Temperature 30 °F 17 °F -32 °F (1998)
Degree Days  
Heating Degree Days 13 38  
Month to date heating degree days 315 392  
Since 1 July heating degree days 5960 6708  
Cooling Degree Days 0 0  
Month to date cooling degree days 0 0  
Year to date cooling degree days 0 0  
Growing Degree Days 2 (Base 50)    
Moisture  
Dew Point 19 °F    
Average Humidity 36    
Maximum Humidity 63    
Minimum Humidity 10    
Precipitation  
Precipitation 0.00 in 0.02 in 0.05 in (2006)
Month to date precipitation 0.09 0.17  
Year to date precipitation 0.70 0.90  
Sea Level Pressure  
Sea Level Pressure 29.81 in    
Wind  
Wind Speed 5 mph (West)    
Max Wind Speed 15 mph    
Max Gust Speed 18 mph    
Visibility 10 miles    
Events      
T = Trace of Precipitation, MM = Missing Value Source: NWS Daily Summary

Daily Weather History Graph

Daily Weather History Graph

Search for Another Location

Airport or City:

Trip Planner

Search our weather history database for the weather conditions in past years. The results will help you decide how hot, cold, wet, or windy it might be!

Date:

Astronomy

Mar. 10, 2012 Rise Set
Actual Time 6:11 AM MST 5:50 PM MST
Civil Twilight 5:42 AM MST 6:20 PM MST
Nautical Twilight 5:07 AM MST 6:54 PM MST
Astronomical Twilight 4:32 AM MST 7:30 PM MST
Moon 9:20 PM MST (3/10) 6:56 AM MST (3/10)
Length of Visible Light 12h 38m
Length of Day
11h 38m
Waning Gibbous, 92% of the Moon is Illuminated
Mar 10
Waning Gibbous
Mar 14
Last Quarter
Mar 22
New
Mar 30
First Quarter
Apr 6
Full

Hourly Weather History & Observations

Time (MST) Temp. Windchill Dew Point Humidity Pressure Visibility Wind Dir Wind Speed Gust Speed Precip Events Conditions
12:53 AM 36.0 °F 31.1 °F 19.0 °F 50% 29.88 in 10.0 mi NW 5.8 mph - N/A   Clear
1:53 AM 33.1 °F 28.7 °F 19.9 °F 59% 29.88 in 10.0 mi West 4.6 mph - N/A   Clear
2:53 AM 36.0 °F 33.3 °F 21.0 °F 55% 29.87 in 10.0 mi WNW 3.5 mph - N/A   Clear
3:53 AM 35.1 °F 30.1 °F 21.9 °F 59% 29.87 in 10.0 mi NW 5.8 mph - N/A   Clear
4:53 AM 32.0 °F 27.5 °F 21.9 °F 66% 29.88 in 10.0 mi NW 4.6 mph - N/A   Clear
5:53 AM 35.1 °F - 21.9 °F 59% 29.90 in 10.0 mi Calm Calm - N/A   Clear
6:53 AM 33.1 °F 27.7 °F 21.9 °F 64% 29.92 in 10.0 mi NW 5.8 mph - N/A   Clear
7:53 AM 48.9 °F - 27.0 °F 43% 29.88 in 10.0 mi WNW 10.4 mph - N/A   Clear
8:53 AM 57.0 °F - 21.0 °F 25% 29.87 in 10.0 mi WNW 13.8 mph - N/A   Clear
9:53 AM 62.1 °F - 19.0 °F 19% 29.86 in 10.0 mi NW 9.2 mph - N/A   Clear
10:53 AM 64.9 °F - 17.1 °F 16% 29.84 in 10.0 mi Variable 3.5 mph - N/A   Clear
11:53 AM 66.9 °F - 17.1 °F 15% 29.83 in 10.0 mi Variable 3.5 mph - N/A   Clear
12:53 PM 70.0 °F - 15.1 °F 12% 29.80 in 10.0 mi West 9.2 mph - N/A   Clear
1:53 PM 71.1 °F - 12.9 °F 11% 29.78 in 10.0 mi SW 6.9 mph - N/A   Clear
2:53 PM 71.1 °F - 12.0 °F 10% 29.76 in 10.0 mi Calm Calm - N/A   Clear
3:53 PM 71.1 °F - 12.0 °F 10% 29.75 in 10.0 mi SW 3.5 mph - N/A   Clear
4:53 PM 68.0 °F - 15.1 °F 13% 29.75 in 10.0 mi SSE 4.6 mph - N/A   Clear
5:53 PM 55.9 °F - 18.0 °F 23% 29.76 in 10.0 mi ESE 6.9 mph - N/A   Clear
6:53 PM 50.0 °F - 19.9 °F 31% 29.76 in 10.0 mi ESE 6.9 mph - N/A   Clear
7:53 PM 48.0 °F - 19.9 °F 33% 29.73 in 10.0 mi ESE 8.1 mph - N/A   Clear
8:53 PM 46.9 °F - 23.0 °F 39% 29.72 in 10.0 mi SE 8.1 mph - N/A   Clear
9:53 PM 37.0 °F - 21.9 °F 54% 29.71 in 10.0 mi Calm Calm - N/A   Clear
10:53 PM 43.0 °F 39.5 °F 24.1 °F 47% 29.69 in 10.0 mi SE 5.8 mph - N/A   Clear
11:53 PM 37.0 °F - 24.1 °F 59% 29.68 in 10.0 mi Calm Calm - N/A   Clear